Home   Weather   Montgomery   Past weeks

Flag for USA Past Weather in Montgomery, Alabama, USA — Yesterday and Last 2 Weeks

Now
52 °F

Overcast.


Feels Like: 51 °F
Forecast: 49 / 57 °F
Wind: 5 mph from Northeast

Location: Maxwell Air Force Base / Montgomery

Current Time: Dec 4, 2016 at 2:14:45 am

Latest Report: Dec 4, 2016 at 1:58 am


Visibility: 10 mi

Pressure: 30.05 "Hg

Humidity: 66%

Dew Point: 40 °F

Location of MontgomeryLocation

Past Weather in Montgomery — Graph

°F

Montgomery Temperature Yesterday

Maximum temperature yesterday: 57 °F (at 10:58 am)
Minimum temperature yesterday: 47 °F (at 1:58 am)
Average temperature yesterday: 51 °F

High & Low Weather Summary for the Past Weeks

 TemperatureHumidityPressure
High79 °F (Nov 24, 2:58 pm)100% (Nov 24, 7:03 am)30.38 "Hg (Nov 24, 7:03 am)
Low29 °F (Nov 21, 5:58 am)10% (Nov 21, 12:58 pm)29.66 "Hg (Nov 28, 10:58 pm)
Average55 °F65%30.13 "Hg
* Reported Nov 19 12:58 am — Dec 4 12:58 am, Montgomery, Weather by CustomWeather, © 2016

Note: Actual official high and low records may vary slightly from our data, if they occured in-between our weather recording intervals... More about our weather records

Advertising

Montgomery Weather History for the Previous 24 Hours

Scroll right to see more
 ConditionsComfort  
Time TempWeatherWind HumidityBarometerVisibility
12:58 am
Sun, Dec 4
52 °FPassing clouds.5 mph60%30.06 "Hg10 mi
11:58 pm
Sat, Dec 3
52 °FOvercast.8 mph60%30.08 "Hg10 mi
10:58 pm51 °FPassing clouds.7 mph63%30.09 "Hg10 mi
9:58 pm51 °FMostly cloudy.10 mph68%30.13 "Hg10 mi
8:58 pm50 °FOvercast.7 mph69%30.17 "Hg10 mi
7:58 pm50 °FOvercast.9 mph72%30.17 "Hg10 mi
6:58 pm49 °FPassing clouds.8 mph82%30.17 "Hg10 mi
5:58 pm49 °FPassing clouds.8 mph88%30.20 "Hg10 mi
4:58 pm49 °FOvercast.7 mph83%30.22 "Hg10 mi
4:01 pm48 °FLight rain. Overcast.13 mph76%30.20 "Hg10 mi
3:04 pm50 °FOvercast.13 mph76%30.19 "Hg10 mi
2:58 pm50 °FLight rain. Overcast.13 mph79%30.20 "Hg10 mi
1:58 pm51 °FLight rain. Mostly cloudy.8 mph76%30.22 "Hg10 mi
12:58 pm53 °FLight rain. Overcast.10 mph68%30.19 "Hg10 mi
12:03 pm57 °FLight rain. Overcast.6 mph44%30.21 "Hg10 mi
11:58 am57 °FOvercast.6 mph43%30.23 "Hg10 mi
10:58 am57 °FOvercast.7 mph41%30.26 "Hg10 mi
9:58 am56 °FOvercast.8 mph45%30.27 "Hg10 mi
8:58 am53 °FOvercast.3 mph58%30.27 "Hg10 mi
7:58 am52 °FPartly sunny.5 mph61%30.27 "Hg10 mi
6:58 am50 °FBroken clouds.3 mph64%30.27 "Hg10 mi
5:58 am50 °FPassing clouds.3 mph64%30.25 "Hg10 mi
4:58 am49 °FPassing clouds.5 mph68%30.24 "Hg10 mi
3:58 am48 °FPassing clouds.5 mph72%30.24 "Hg10 mi
2:58 am48 °FPassing clouds.5 mph70%30.24 "Hg10 mi
Weather by CustomWeather, © 2016

See weather overviewHow to use our weather pages